LiveATC.Net - Listen to live air traffic control over the Internet!

ICAO: KSMO  IATA: SMO   Airport: Santa Monica Municipal Airport
City: Santa Monica   State/Province: California
Country: United States   Continent: North America
KSMO METAR Weather: KSMO 172151Z 23014G21KT 10SM CLR 14/04 A3002 RMK AO2 SLP163 T01390039
KSMO Flight Activity (FlightAware)
KSMO Webcam:  (Airport Webcams) 
KSMO Airport Info   (AirNav) (iFlightPlanner)
KSMO VFR Sectional Chart   (iFlightPlanner) 
KSMO IFR Low Chart   (iFlightPlanner) 
KSMO Tower
Feed Status: UP   Listeners: 1
Listen right in your browser - requires Flash (in browser, requires Flash)
Click here to listen with your own player (launches your MP3 player)
KSMO Tower Audio Archives
Santa Monica Tower120.100

Feed sponsored by: Proteus Air Services


Unauthorized use prohibited. See Terms of Service

Find LiveATC Audio Streams

Airport/ARTCC Code

Frequency Search
(e.g., 124.400, 128.75)
Site-wide search

Browse LiveATC Feeds
LiveATC Coverage Map
Top 50 LiveATC Feeds
Bad Weather Areas

Offer a LiveATC Feed
Press Inquiries

LiveATC on iPhone
LiveATC on Android

Windows Phone
Windows 8/10

LiveATC Mobile
(Mobile browser)

ATC Audio Archives
Interesting Recordings

LiveATC Forums

Home Page
Make a Donation
Terms of Use
Privacy Policy

Canadian Air Freqs


FAA Airport Status
Nat'l Airspace Status
Arrival Demand Charts

Server Software By: